Kezdőlap
METAR-TAF:

METAR-TAF

Repülőterek :

Ortonville Municipal Airport (Martinson Field)

Ortonville, Minnesota, Amerikai Egyesült Államok

földrajzi szélesség: 45-18-20N, földrajzi hosszúság: 096-25-28W, magasság: 335 m

Jelenlegi meteorológiai megfigyelések

A jelentés 29 perccel ezelõtt készült, 09:35 UTC
Kelet-délkeleti szél 3 kt
Hőmérséklet -1°C
Páratartalom 93%
Légköri nyomás 1018 hPa
Látótávolság: 16.1 km
Derült ég

METAR: KVVV 230935Z AUTO 11003KT 10SM CLR M01/M02 A3006 RMK AO2

Idő: 05:04 (10:04 UTC)


TAF: hiányzik

Meteorológiai megfigyelések és előrejelzések több, mint 4000 repülőtéren (METAR és TAF jelentéseket).

A térképen piros és sárga pontok jelzik az elérhető meteorológiai állomásokat.

Mozgassa az egeret a pont fölött, hogy megjelenjen az állomás neve.

Azután kattintson az időjárási megfigyelések és előrejelzések megtekintéséhez.

A térkép megváltoztatása: kattintson a fekete keresztel jelölt zöld gombra ráközelítéshez, a vonallal jelölt zöld gombra távolításhoz, vagy a zöld nyilakra a szomszédos térképek eléréséhez.


METAR-TAF: